This demonstration page uses our WeatherBlox Daily Observations layout. Learn more.

Left ArrowRight Arrow

39.92423, -83.80882

Hourly Observations for February 16, 2019

Temp ( °F °C ) Dew Point ( °F °C ) Humidity (%) Winds ( mph kmh ) Pressure ( in mb ) Visibility ( mi km ) Precip ( " mm )
12:56 am 00:56 Clear 24 -4.4 21 -6.1 88 88 N 10 17 30.01 1016 10 16.0934 N/A
1:56 am 01:56 Mostly Clear 23 -5 21 -6.1 92 92 N 7 11 30.01 1016 10 16.0934 N/A
2:12 am 02:12 Mostly Cloudy 25 -4 19 -7 80 80 N 12 19 30.04 1017 10 16.0934 N/A
2:56 am 02:56 Mostly Cloudy 23 -5 19 -7.2 85 85 N 10 17 30 1016 10 16.0934 N/A
3:08 am 03:08 Partly Cloudy 23 -5 19 -7 86 86 N 13 20 30.04 1017 10 16.0934 N/A
3:45 am 03:45 Mostly Cloudy 23 -5 19 -7 86 86 NNE 12 19 30.05 1017 10 16.0934 N/A
3:56 am 03:56 Cloudy 23 -5 20 -6.7 88 88 N 9 15 30.02 1017 10 16.0934 N/A
4:46 am 04:46 Partly Cloudy 21 -6 18 -8 86 86 N 12 19 30.07 1018 10 16.0934 N/A
4:56 am 04:56 Mostly Clear 21 -6.1 18 -7.8 88 88 N 9 15 30.03 1017 10 16.0934 N/A
5:56 am 05:56 Clear 20 -6.7 17 -8.3 89 89 N 10 17 30.04 1017 10 16.0934 N/A
6:56 am 06:56 Mostly Clear 19 -7.2 17 -8.3 92 92 NNE 6 9 30.06 1018 10 16.0934 N/A
7:23 am 07:23 Mostly Cloudy 19 -7 18 -8 93 93 NNE 12 19 30.11 1019 10 16.0934 N/A
7:56 am 07:56 Mostly Cloudy 20 -6.7 17 -8.3 89 89 NNE 9 15 30.08 1019 10 16.0934 N/A
9:56 am 09:56 Cloudy 22 -5.6 18 -7.8 85 85 NE 10 17 30.1 1019 10 16.0934 N/A
10:56 am 10:56 Cloudy 23 -5 18 -7.8 81 81 NNE 14 22 30.09 1019 10 16.0934 N/A
11:56 am 11:56 Cloudy 25 -3.9 19 -7.2 78 78 ENE 12 19 30.1 1019 10 16.0934 N/A
12:05 pm 12:05 Cloudy 25 -4 19 -7 80 80 ENE 9 15 30.12 1020 10 16.0934 N/A
12:56 pm 12:56 Cloudy 26 -3.3 19 -7.2 75 75 NE 9 15 30.1 1019 10 16.0934 N/A
1:56 pm 13:56 Cloudy 26 -3.3 20 -6.7 78 78 NE 10 17 30.07 1018 10 16.0934 N/A
2:56 pm 14:56 Cloudy 28 -2.2 21 -6.1 75 75 NE 10 17 30.05 1018 10 16.0934 N/A
3:56 pm 15:56 Cloudy 27 -2.8 21 -6.1 78 78 NNE 9 15 30.06 1018 10 16.0934 N/A
4:56 pm 16:56 Cloudy 26 -3.3 20 -6.7 78 78 ENE 10 17 30.06 1018 10 16.0934 N/A
5:56 pm 17:56 Cloudy 26 -3.3 21 -6.1 81 81 NE 13 20 30.06 1018 10 16.0934 N/A
6:56 pm 18:56 Cloudy 26 -3.3 21 -6.1 81 81 ENE 13 20 30.07 1018 10 16.0934 N/A
7:41 pm 19:41 Partly Cloudy 23 -5 19 -7 86 86 ENE 6 9 30.11 1020 10 16.0934 N/A
7:56 pm 19:56 Clear 22 -5.6 20 -6.7 92 92 NE 8 13 30.08 1019 10 16.0934 N/A
8:56 pm 20:56 Clear 20 -6.7 18 -7.8 92 92 NE 8 13 30.07 1018 10 16.0934 N/A
10:56 pm 22:56 Clear 23 -5 20 -6.7 88 88 ENE 14 22 30.05 1018 10 16.0934 N/A
11:56 pm 23:56 Clear 23 -5 20 -6.7 88 88 ENE 10 17 30.05 1018 10 16.0934 N/A

Powered by AerisWeather